Location: Kerguer�zec
(48.4509°N, 4.7600°W)
Time: 01:26:43
(UTC+00:00)

ISS - Pass Details

Date: 05 March 2021
Orbit: 418 x 422 km, 51.6° (Epoch: 10 April)

Event Time Altitude Azimuth Distance (km) Brightness Sun altitude
Exits shadow 05:26:03 26° 303° (WNW) 866 -2.6 -15.1°
Maximum altitude 05:27:41 54° 11° (N) 514 -3.3 -14.9°
Drops below altitude 10° 05:31:00 10° 90° (E) 1,499 0.5 -14.3°
Sets 05:33:08 0° 95° (E) 2,362 1.8 -14.0°
